TimeCET,TemperatureF,Dew PointF,Humidity,Sea Level PressureIn,VisibilityMPH,Wind Direction,Wind SpeedMPH,Gust SpeedMPH,PrecipitationIn,Events,Conditions,WindDirDegrees,DateUTC
12:00 AM,38,32,71,29.89,19,South,11.2,,,,Overcast,190,2014-01-12 23:00:00
12:25 AM,39.2,33.8,81,29.86,6.2,South,13.8,-,N/A,,Overcast,190,2014-01-12 23:25:00
12:55 AM,39.2,35.6,87,29.86,6.2,South,13.8,-,N/A,,Overcast,190,2014-01-12 23:55:00
1:00 AM,39,35,82,29.86,7,South,13.4,,,,Partly Cloudy,180,2014-01-13 00:00:00
1:25 AM,39.2,35.6,87,29.83,6.2,South,11.5,-,N/A,,Overcast,180,2014-01-13 00:25:00
1:55 AM,39.2,35.6,87,29.83,6.2,South,10.4,-,N/A,,Overcast,170,2014-01-13 00:55:00
2:00 AM,39,36,84,29.82,7,South,11.2,,,,Overcast,170,2014-01-13 01:00:00
2:25 AM,39.2,37.4,93,29.80,6.2,South,12.7,-,N/A,,Overcast,170,2014-01-13 01:25:00
2:55 AM,39.2,37.4,93,29.80,5.6,South,12.7,-,N/A,,Overcast,170,2014-01-13 01:55:00
3:00 AM,40,38,88,29.80,5,South,13.4,,,,Mist,170,2014-01-13 02:00:00
3:25 AM,39.2,37.4,93,29.77,3.7,SSE,11.5,-,N/A,,Overcast,160,2014-01-13 02:25:00
3:55 AM,41.0,37.4,87,29.77,5.6,South,13.8,-,N/A,,Overcast,170,2014-01-13 02:55:00
4:00 AM,41,39,88,29.78,6,South,13.4,,,Rain,Drizzle,180,2014-01-13 03:00:00
4:25 AM,41.0,39.2,93,29.77,5.6,South,13.8,-,N/A,,Overcast,180,2014-01-13 03:25:00
4:55 AM,44.6,41.0,87,29.74,5.0,South,15.0,-,N/A,,Overcast,180,2014-01-13 03:55:00
5:00 AM,44,42,88,29.75,4,South,15.7,,,,Mist,180,2014-01-13 04:00:00
5:25 AM,44.6,42.8,93,29.74,6.2,South,15.0,-,N/A,,Overcast,190,2014-01-13 04:25:00
5:55 AM,44.6,42.8,93,29.74,6.2,SSW,13.8,-,N/A,,Overcast,200,2014-01-13 04:55:00
6:00 AM,46,43,86,29.74,7,SSW,17.9,,,,Partly Cloudy,200,2014-01-13 05:00:00
6:25 AM,48.2,44.6,87,29.74,6.2,SW,20.7,32.2,N/A,,Overcast,220,2014-01-13 05:25:00
6:55 AM,48.2,42.8,82,29.74,6.2,WSW,20.7,-,N/A,,Mostly Cloudy,240,2014-01-13 05:55:00
7:00 AM,47,42,79,29.77,9,WSW,20.1,,,,Partly Cloudy,240,2014-01-13 06:00:00
7:25 AM,46.4,42.8,87,29.77,6.2,WSW,19.6,-,N/A,,Partly Cloudy,240,2014-01-13 06:25:00
7:55 AM,46.4,42.8,87,29.77,6.2,WSW,15.0,-,N/A,,Overcast,240,2014-01-13 06:55:00
8:00 AM,47,42,77,29.80,10,WSW,15.7,,,,Overcast,240,2014-01-13 07:00:00
8:25 AM,44.6,42.8,93,29.80,6.2,SW,13.8,-,N/A,,Partly Cloudy,230,2014-01-13 07:25:00
8:55 AM,44.6,42.8,93,29.80,6.2,SW,13.8,-,N/A,,Unknown,220,2014-01-13 07:55:00
9:00 AM,45,43,88,29.82,7,SW,13.4,,,,,220,2014-01-13 08:00:00
9:25 AM,44.6,42.8,93,29.80,6.2,SW,15.0,-,N/A,,Partly Cloudy,220,2014-01-13 08:25:00
9:55 AM,44.6,42.8,93,29.80,6.2,SSW,12.7,-,N/A,,Unknown,210,2014-01-13 08:55:00
10:00 AM,46,43,84,29.82,7,SSW,13.4,,,,Partly Cloudy,210,2014-01-13 09:00:00
10:25 AM,46.4,42.8,87,29.80,6.2,SSW,13.8,-,N/A,,Mostly Cloudy,210,2014-01-13 09:25:00
10:55 AM,46.4,42.8,87,29.80,6.2,SSW,13.8,-,N/A,,Partly Cloudy,210,2014-01-13 09:55:00
11:00 AM,47,43,82,29.82,7,SSW,13.4,,,,Overcast,210,2014-01-13 10:00:00
11:25 AM,48.2,42.8,82,29.83,6.2,SSW,17.3,-,N/A,,Mostly Cloudy,210,2014-01-13 10:25:00
11:55 AM,46.4,42.8,87,29.80,6.2,SSW,18.4,-,N/A,,Partly Cloudy,210,2014-01-13 10:55:00
12:00 PM,47,44,86,29.82,4,SSW,17.9,,,Rain,Light Rain Showers,210,2014-01-13 11:00:00
12:25 PM,46.4,44.6,93,29.80,6.2,SSW,16.1,-,N/A,,Mostly Cloudy,210,2014-01-13 11:25:00
12:55 PM,48.2,42.8,82,29.80,6.2,SW,15.0,-,N/A,,Overcast,220,2014-01-13 11:55:00
1:00 PM,48,44,81,29.81,9,SW,15.7,,,Rain,Rain,220,2014-01-13 12:00:00
1:25 PM,48.2,42.8,82,29.80,6.2,SW,12.7,-,N/A,,Scattered Clouds,230,2014-01-13 12:25:00
1:55 PM,48.2,42.8,82,29.77,6.2,SW,15.0,-,N/A,,Scattered Clouds,220,2014-01-13 12:55:00
2:00 PM,48,43,77,29.79,10,SW,13.4,,,,Scattered Clouds,230,2014-01-13 13:00:00
2:25 PM,48.2,42.8,82,29.77,6.2,SW,13.8,-,N/A,,Partly Cloudy,230,2014-01-13 13:25:00
2:55 PM,48.2,42.8,82,29.77,6.2,SW,13.8,-,N/A,,Mostly Cloudy,220,2014-01-13 13:55:00
3:00 PM,48,43,77,29.78,9,SSW,11.2,,,,Mostly Cloudy,210,2014-01-13 14:00:00
3:25 PM,48.2,42.8,82,29.77,6.2,SW,11.5,-,N/A,,Mostly Cloudy,220,2014-01-13 14:25:00
3:55 PM,48.2,42.8,82,29.77,6.2,SSW,13.8,-,N/A,,Mostly Cloudy,210,2014-01-13 14:55:00
4:00 PM,47,42,76,29.78,11,SSW,13.4,,,,Scattered Clouds,210,2014-01-13 15:00:00
4:25 PM,46.4,42.8,87,29.77,6.2,South,10.4,-,N/A,,Mostly Cloudy,190,2014-01-13 15:25:00
4:55 PM,46.4,41.0,81,29.77,6.2,South,9.2,-,N/A,,Mostly Cloudy,190,2014-01-13 15:55:00
5:00 PM,46,42,79,29.77,10,South,8.9,,,,Mostly Cloudy,190,2014-01-13 16:00:00
5:25 PM,44.6,41.0,87,29.77,6.2,South,9.2,-,N/A,,Mostly Cloudy,190,2014-01-13 16:25:00
5:55 PM,44.6,41.0,87,29.77,6.2,South,11.5,-,N/A,,Unknown,180,2014-01-13 16:55:00
6:00 PM,45,41,79,29.77,11,South,11.2,,,,,180,2014-01-13 17:00:00
6:25 PM,44.6,41.0,87,29.77,6.2,South,10.4,-,N/A,,Unknown,180,2014-01-13 17:25:00
6:55 PM,42.8,39.2,87,29.74,6.2,South,9.2,-,N/A,,Unknown,180,2014-01-13 17:55:00
7:00 PM,44,40,79,29.76,11,South,8.9,,,,Partly Cloudy,180,2014-01-13 18:00:00
7:25 PM,44.6,39.2,81,29.74,6.2,South,10.4,-,N/A,,Unknown,170,2014-01-13 18:25:00
7:55 PM,42.8,39.2,87,29.74,6.2,South,10.4,-,N/A,,Unknown,170,2014-01-13 18:55:00
8:00 PM,43,40,85,29.75,9,South,11.2,,,,,170,2014-01-13 19:00:00
8:25 PM,42.8,39.2,87,29.74,6.2,South,11.5,-,N/A,,Unknown,170,2014-01-13 19:25:00
8:55 PM,42.8,39.2,87,29.74,6.2,South,10.4,-,N/A,,Unknown,170,2014-01-13 19:55:00
9:00 PM,42,39,87,29.75,9,South,8.9,,,,,180,2014-01-13 20:00:00
9:25 PM,42.8,39.2,87,29.74,6.2,South,9.2,-,N/A,,Unknown,170,2014-01-13 20:25:00
9:55 PM,41.0,39.2,93,29.71,6.2,SSE,9.2,-,N/A,,Unknown,160,2014-01-13 20:55:00
10:00 PM,42,39,83,29.73,9,South,8.9,,,,,170,2014-01-13 21:00:00
10:25 PM,41.0,39.2,93,29.71,6.2,South,9.2,-,N/A,,Unknown,170,2014-01-13 21:25:00
10:55 PM,41.0,39.2,93,29.71,6.2,South,10.4,-,N/A,,Unknown,170,2014-01-13 21:55:00
11:00 PM,41,38,87,29.72,9,SSE,8.9,,,,,160,2014-01-13 22:00:00
11:25 PM,41.0,39.2,93,29.71,6.2,SSE,10.4,-,N/A,,Unknown,160,2014-01-13 22:25:00
11:55 PM,41.0,39.2,93,29.68,6.2,SSE,10.4,-,N/A,,Unknown,160,2014-01-13 22:55:00